Current weather by "City, St" or "zip code"  
 
Advertise Here

Current Conditions: Okmulgee, Okmulgee Municipal Airport, OK

Thunderstorm Rain


51.0 F

Last Updated on Jan 25 2021, 2:55 am CST
Humidity: 100%
Wind Speed: E 5.8 mph
Barometer 29.59 in
Dewpoint: 51.1 F
Visibility: 4.00 mi
Precip: 00.01 in
Heat Index: NA
Wind Chill: 49 F
Current conditions at:

Okmulgee, Okmulgee Municipal Airport, OK (KOKM)

Lat: 35.66806 Lon: 95.94861

Local Radar Image active severe weather and emergency alerts image image weather storm and storm spotter reports image weather observation monitoring service image
Local
Radar
Active
Alerts
Storm Reports Obs
Monitoring

Sign-up For Email & Text Message Weather Alert Notification Services


Advertise Here

Observation History for Okmulgee, Okmulgee Municipal Airport, OK


Time Wind
(mph)
Vis
(mi)
Weather Precip (in) Temperature (F) Relative
Humidity
Wind
Chill
(F)
Heat
Index
(F)
Pressure
Air Dwpt altimeter
(in)
sea level
(mb)
Rmks
2:55 am CST E 5.8 4.00 Thunderstorm Rain 00.01 51.0 51.1 100% 49 NA 29.59 M
1:55 am CST NE 8.1 3.00 Thunderstorm in Vicinity Fog/Mist 00.01 49.0 49.1 100% 46 NA 29.61 M
12:55 am CST NE 10.4 7.00 Thunderstorm in Vicinity 00.02 49.0 48.6 100% 45 NA 29.68 M
11:55 pm CST E 8.1 3.00 Thunderstorm Light Rain 00.03 49.0 49.5 100% 46 NA 29.72 M
11:35 pm CST NE 11.5 G 24.2 5.00 Thunderstorm in Vicinity Fog/Mist 00.03 49.0 49.1 100% 44 NA 29.70 M
10:55 pm CST N 10.4 3.00 Thunderstorm Rain 00.05 49.0 49.5 100% 45 NA 29.77 M
9:55 pm CST N 6.9 4.00 Thunderstorm Light Drizzle in Vicinity -- 50.0 49.8 100% 47 NA 29.77 M
8:55 pm CST NE 5.8 10.00 Overcast -- 50.0 50.2 99% 48 NA 29.81 M
8:35 pm CST N 6.9 10.00 Overcast -- 51.0 48.9 93% 48 NA 29.82 M
7:55 pm CST NE 9.2 10.00 Overcast -- 51.0 47.8 88% 48 NA 29.81 M
7:35 pm CST E 9.2 10.00 Overcast -- 51.0 47.8 88% 48 NA 29.82 M
6:55 pm CST NE 8.1 10.00 Overcast -- 52.0 48.2 88% 49 NA 29.84 M
6:35 pm CST NE 9.2 10.00 Overcast -- 52.0 46.8 81% 49 NA 29.87 M
5:55 pm CST NE 8.1 10.00 Mostly Cloudy -- 53.0 46.8 80% 50 NA 29.85 M
5:35 pm CST NE 6.9 10.00 Mostly Cloudy -- 53.0 46.8 78% 51 NA 29.85 M
4:55 pm CST E 9.2 10.00 Overcast -- 55.0 46.9 74% 52 NA 29.87 M
3:55 pm CST E 4.6 7.00 Overcast -- 56.0 47.5 72% 55 NA 29.91 M
3:35 pm CST NE 6.9 10.00 Overcast -- 57.0 47.8 71% 56 NA 29.90 M
2:55 pm CST NE 4.6 10.00 Overcast -- 57.0 48.0 71% 57 NA 29.91 M
1:55 pm CST NE 4.6 10.00 Overcast -- 55.0 48.2 78% 54 NA 29.91 M
1:35 pm CST E 3.5 10.00 Overcast -- 54.0 48.2 80% NA NA 29.93 M
12:55 pm CST NE 3.5 10.00 Overcast -- 53.0 47.8 84% NA NA 29.94 M
12:35 pm CST SE 4.6 10.00 Overcast -- 52.0 47.7 86% 51 NA 29.97 M
11:55 am CST S 3.5 10.00 Overcast -- 50.0 47.8 91% NA NA 29.99 M

Regional Weather Observation


Cushing, Cushing Municipal Airport, OK (KCUH)

Thunderstorm Light Rain
44.0 F

Sand Springs, William R Pogue Municipal Airport, OK (KOWP)

Thunderstorm
51.0 F

Tulsa - Jones Jr. Airport, OK (KRVS)

Light Rain
50.0 F

Chandler, Chandler Municipal Airport, OK (KCQB)

Thunderstorm Rain Fog/Mist
46.0 F

Tulsa, Tulsa International Airport, OK (KTUL)

Rain Fog/Mist
49.0 F

Seminole, Seminole Municipal Airport, OK (KSRE)

Thunderstorm in Vicinity Rain
52.0 F